Archiv

Tageswerte

Alle gespeicherten Messwerte deiner Wetterstation.

Ausgewählter Tag04.12.2023
← Vortag Nächster Tag → Heute
Messpunkte287
Max Temperatur0,4 °C
Min Temperatur-6,3 °C
Ø Temperatur-2,8 °C
Regen0,0 mm
Stärkste Böe12,2 km/h

Messwerte vom 04.12.2023

287 gespeicherte Messwerte

Diagramm anzeigen
ZeitTemperaturFeuchteDruckWindBöeRichtungRegenUVHelligkeit
23:59-2,3 °C79 %1.000,0 hPa1,2 km/h3,2 km/h114°0,0 mm
23:54-2,3 °C80 %1.000,0 hPa2,0 km/h6,8 km/h154°0,0 mm
23:49-2,3 °C80 %1.000,0 hPa1,0 km/h3,9 km/h132°0,0 mm
23:44-2,3 °C79 %1.001,0 hPa1,5 km/h3,9 km/h111°0,0 mm
23:39-2,3 °C80 %1.001,0 hPa2,0 km/h5,3 km/h112°0,0 mm
23:34-2,3 °C80 %1.001,0 hPa0,9 km/h2,7 km/h127°0,0 mm
23:29-2,3 °C80 %1.001,0 hPa1,5 km/h3,2 km/h144°0,0 mm
23:24-2,3 °C80 %1.001,0 hPa1,5 km/h6,4 km/h177°0,0 mm
23:19-2,3 °C80 %1.001,0 hPa1,3 km/h3,2 km/h134°0,0 mm
23:14-2,4 °C80 %1.001,0 hPa0,7 km/h3,5 km/h144°0,0 mm
23:09-2,4 °C80 %1.001,0 hPa1,6 km/h8,9 km/h192°0,0 mm
23:04-2,4 °C80 %1.001,0 hPa0,8 km/h3,2 km/h138°0,0 mm
22:59-2,4 °C80 %1.001,0 hPa0,6 km/h2,7 km/h134°0,0 mm
22:54-2,4 °C80 %1.001,0 hPa0,9 km/h5,3 km/h124°0,0 mm
22:49-2,4 °C80 %1.001,0 hPa0,8 km/h3,9 km/h112°0,0 mm
22:44-2,5 °C79 %1.001,0 hPa0,7 km/h5,6 km/h113°0,0 mm
22:39-2,5 °C79 %1.001,0 hPa0,9 km/h2,7 km/h113°0,0 mm
22:34-2,4 °C79 %1.001,0 hPa0,9 km/h3,9 km/h159°0,0 mm
22:29-2,4 °C78 %1.001,0 hPa1,0 km/h6,4 km/h102°0,0 mm
22:24-2,5 °C78 %1.001,0 hPa1,2 km/h4,7 km/h118°0,0 mm
22:19-2,5 °C78 %1.001,0 hPa1,5 km/h3,5 km/h122°0,0 mm
22:14-2,5 °C78 %1.001,0 hPa1,4 km/h3,9 km/h112°0,0 mm
22:09-2,6 °C78 %1.001,0 hPa1,2 km/h6,4 km/h149°0,0 mm
22:04-2,6 °C79 %1.001,0 hPa0,9 km/h3,2 km/h105°0,0 mm
21:59-2,6 °C79 %1.002,0 hPa1,0 km/h2,7 km/h111°0,0 mm
21:54-2,6 °C78 %1.002,0 hPa0,9 km/h3,9 km/h132°0,0 mm
21:49-2,6 °C78 %1.002,0 hPa1,2 km/h3,5 km/h140°0,0 mm
21:44-2,6 °C79 %1.001,0 hPa0,9 km/h5,6 km/h126°0,0 mm
21:39-2,7 °C78 %1.001,0 hPa1,5 km/h3,5 km/h113°0,0 mm
21:34-2,7 °C78 %1.001,0 hPa1,2 km/h5,3 km/h125°0,0 mm
21:29-2,7 °C79 %1.002,0 hPa1,0 km/h2,7 km/h130°0,0 mm
21:24-2,6 °C79 %1.002,0 hPa0,8 km/h2,7 km/h112°0,0 mm
21:19-2,6 °C79 %1.002,0 hPa1,8 km/h5,6 km/h122°0,0 mm
21:14-2,6 °C79 %1.002,0 hPa0,8 km/h2,7 km/h111°0,0 mm
21:09-2,6 °C78 %1.002,0 hPa1,5 km/h3,5 km/h147°0,0 mm
21:04-2,7 °C78 %1.002,0 hPa1,9 km/h6,8 km/h103°0,0 mm
20:59-2,7 °C78 %1.002,0 hPa1,6 km/h6,1 km/h142°0,0 mm
20:54-2,7 °C79 %1.002,0 hPa1,0 km/h6,8 km/h111°0,0 mm
20:49-2,7 °C79 %1.002,0 hPa0,8 km/h7,4 km/h124°0,0 mm
20:44-2,7 °C79 %1.002,0 hPa0,8 km/h2,7 km/h103°0,0 mm
20:39-2,7 °C79 %1.002,0 hPa1,5 km/h8,5 km/h110°0,0 mm
20:34-2,7 °C78 %1.002,0 hPa1,8 km/h7,1 km/h112°0,0 mm
20:29-2,7 °C78 %1.002,0 hPa1,6 km/h7,1 km/h142°0,0 mm
20:24-2,7 °C78 %1.002,0 hPa2,3 km/h9,3 km/h118°0,0 mm
20:19-2,7 °C77 %1.002,0 hPa1,2 km/h3,9 km/h106°0,0 mm
20:14-2,8 °C77 %1.002,0 hPa1,5 km/h7,4 km/h111°0,0 mm
20:09-2,8 °C78 %1.002,0 hPa1,7 km/h7,4 km/h129°0,0 mm
20:04-2,8 °C78 %1.002,0 hPa0,7 km/h2,7 km/h97°0,0 mm
19:59-2,7 °C78 %1.002,0 hPa1,9 km/h3,5 km/h120°0,0 mm
19:54-2,7 °C78 %1.002,0 hPa1,1 km/h5,3 km/h105°0,0 mm
19:49-2,7 °C78 %1.002,0 hPa0,4 km/h2,4 km/h116°0,0 mm
19:44-2,7 °C78 %1.002,0 hPa1,1 km/h5,0 km/h104°0,0 mm
19:39-2,7 °C77 %1.002,0 hPa1,7 km/h6,1 km/h115°0,0 mm
19:34-2,7 °C77 %1.002,0 hPa2,3 km/h5,6 km/h110°0,0 mm
19:29-2,8 °C76 %1.002,0 hPa1,4 km/h5,0 km/h127°0,0 mm
19:24-2,8 °C77 %1.002,0 hPa1,1 km/h3,9 km/h115°0,0 mm
19:19-2,8 °C77 %1.002,0 hPa1,5 km/h6,8 km/h110°0,0 mm
19:14-2,9 °C76 %1.003,1 hPa0,9 km/h2,7 km/h112°0,0 mm
19:09-3,0 °C76 %1.003,1 hPa1,2 km/h6,1 km/h110°0,0 mm
19:04-3,0 °C78 %1.003,1 hPa0,7 km/h3,2 km/h98°0,0 mm
18:59-3,0 °C81 %1.003,1 hPa0,5 km/h3,5 km/h105°0,0 mm
18:54-2,8 °C81 %1.003,1 hPa0,2 km/h1,8 km/h112°0,0 mm
18:49-2,7 °C81 %1.003,1 hPa0,2 km/h2,1 km/h112°0,0 mm
18:44-2,5 °C80 %1.003,1 hPa0,3 km/h2,4 km/h103°0,0 mm
18:39-2,5 °C80 %1.003,1 hPa0,2 km/h2,7 km/h112°0,0 mm
18:34-2,5 °C80 %1.003,1 hPa1,1 km/h3,2 km/h109°0,0 mm
18:29-2,5 °C80 %1.003,1 hPa0,8 km/h3,9 km/h106°0,0 mm
18:24-2,4 °C80 %1.003,1 hPa0,9 km/h4,2 km/h104°0,0 mm
18:19-2,3 °C79 %1.003,1 hPa0,7 km/h2,1 km/h102°0,0 mm
18:14-2,2 °C79 %1.003,1 hPa0,2 km/h2,1 km/h112°0,0 mm
18:09-2,1 °C79 %1.003,1 hPa0,1 km/h1,8 km/h112°0,0 mm
18:04-1,9 °C77 %1.003,1 hPa1,1 km/h3,9 km/h112°0,0 mm
17:59-1,8 °C76 %1.003,1 hPa1,5 km/h4,7 km/h109°0,0 mm
17:54-1,7 °C75 %1.003,1 hPa0,5 km/h2,7 km/h112°0,0 mm
17:49-1,6 °C72 %1.003,1 hPa0,1 km/h1,8 km/h112°0,0 mm
17:44-1,6 °C72 %1.003,1 hPa0,3 km/h2,1 km/h106°0,0 mm
17:39-1,8 °C72 %1.003,1 hPa0,9 km/h2,7 km/h109°0,0 mm
17:34-2,0 °C74 %1.003,1 hPa0,3 km/h2,4 km/h112°0,0 mm
17:29-2,0 °C77 %1.003,1 hPa0,2 km/h2,1 km/h90°0,0 mm
17:24-2,0 °C79 %1.003,1 hPa0,0 km/h0,0 km/h68°0,0 mm
17:19-2,0 °C79 %1.003,1 hPa0,0 km/h0,0 km/h68°0,0 mm
17:14-2,1 °C79 %1.003,1 hPa0,0 km/h0,0 km/h68°0,0 mm
17:09-2,1 °C81 %1.003,1 hPa0,0 km/h0,0 km/h68°0,0 mm
17:04-2,1 °C82 %1.003,1 hPa0,0 km/h0,0 km/h68°0,0 mm
16:59-2,1 °C82 %1.004,1 hPa0,0 km/h0,0 km/h68°0,0 mm
16:54-2,0 °C81 %1.004,1 hPa0,0 km/h0,0 km/h68°0,0 mm
16:49-2,0 °C81 %1.004,1 hPa0,0 km/h0,0 km/h68°0,0 mm
16:44-1,9 °C80 %1.004,1 hPa0,0 km/h0,0 km/h68°0,0 mm
16:39-1,8 °C81 %1.004,1 hPa0,0 km/h0,0 km/h68°0,0 mm
16:34-1,7 °C81 %1.004,1 hPa0,0 km/h0,0 km/h68°0,0 mm
16:29-1,7 °C81 %1.004,1 hPa0,0 km/h0,0 km/h68°0,0 mm
16:24-1,6 °C80 %1.004,1 hPa0,0 km/h0,0 km/h68°0,0 mm
16:19-1,5 °C80 %1.004,1 hPa0,1 km/h2,1 km/h68°0,0 mm
16:14-1,3 °C80 %1.004,1 hPa0,1 km/h1,8 km/h90°0,0 mm
16:09-1,1 °C78 %1.004,1 hPa0,0 km/h0,0 km/h90°0,0 mm
16:04-1,0 °C78 %1.004,1 hPa0,0 km/h0,0 km/h90°0,0 mm
15:59-0,9 °C75 %1.004,1 hPa0,3 km/h2,7 km/h90°0,0 mm
15:54-0,7 °C72 %1.004,1 hPa0,0 km/h0,0 km/h90°0,0 mm
15:49-0,6 °C69 %1.004,1 hPa0,0 km/h0,0 km/h90°0,0 mm
15:39-0,4 °C68 %1.004,1 hPa0,0 km/h0,0 km/h90°0,0 mm
15:34-0,3 °C67 %1.004,1 hPa0,1 km/h1,8 km/h90°0,0 mm
15:29-0,2 °C65 %1.005,1 hPa0,0 km/h0,0 km/h68°0,0 mm
15:24-0,3 °C64 %1.005,1 hPa0,2 km/h2,1 km/h98°0,0 mm
15:19-0,3 °C64 %1.005,1 hPa0,6 km/h2,7 km/h92°0,0 mm
15:14-0,3 °C65 %1.005,1 hPa0,2 km/h2,1 km/h68°0,0 mm
15:09-0,3 °C66 %1.005,1 hPa0,2 km/h1,8 km/h112°0,0 mm
15:04-0,3 °C69 %1.005,1 hPa0,2 km/h1,8 km/h89°0,0 mm
14:59-0,3 °C71 %1.005,1 hPa0,2 km/h1,8 km/h306°0,0 mm
14:54-0,2 °C72 %1.005,1 hPa0,0 km/h0,0 km/h90°0,0 mm
14:49-0,2 °C71 %1.005,1 hPa0,0 km/h0,0 km/h90°0,0 mm
14:44-0,1 °C70 %1.005,1 hPa0,0 km/h0,0 km/h90°0,0 mm
14:390,0 °C70 %1.005,1 hPa0,0 km/h0,0 km/h90°0,0 mm
14:340,0 °C69 %1.005,1 hPa0,0 km/h0,0 km/h90°0,0 mm
14:290,0 °C66 %1.005,1 hPa0,3 km/h2,4 km/h87°0,0 mm
14:240,0 °C70 %1.005,1 hPa0,2 km/h2,7 km/h68°0,0 mm
14:190,0 °C70 %1.005,1 hPa0,1 km/h2,1 km/h68°0,0 mm
14:140,2 °C67 %1.006,1 hPa0,0 km/h0,0 km/h68°0,0 mm
14:090,3 °C68 %1.006,1 hPa0,0 km/h0,0 km/h68°0,0 mm
14:040,4 °C68 %1.006,1 hPa0,0 km/h0,0 km/h68°0,0 mm
13:590,4 °C67 %1.006,1 hPa0,2 km/h2,7 km/h45°0,0 mm
13:540,3 °C66 %1.006,1 hPa0,0 km/h0,0 km/h45°0,0 mm
13:490,2 °C68 %1.006,1 hPa0,0 km/h0,0 km/h68°0,0 mm
13:440,0 °C67 %1.006,1 hPa0,0 km/h0,0 km/h68°0,0 mm
13:390,0 °C68 %1.006,1 hPa0,2 km/h1,8 km/h90°0,0 mm
13:34-0,2 °C67 %1.006,1 hPa0,6 km/h3,9 km/h80°0,0 mm
13:29-0,3 °C69 %1.006,1 hPa0,6 km/h2,4 km/h334°0,0 mm
13:24-0,4 °C70 %1.006,1 hPa0,2 km/h3,2 km/h59°0,0 mm
13:19-0,4 °C70 %1.006,1 hPa0,3 km/h2,1 km/h78°0,0 mm
13:14-0,4 °C70 %1.006,1 hPa0,7 km/h2,7 km/h96°0,0 mm
13:09-0,4 °C70 %1.006,1 hPa0,5 km/h2,4 km/h124°0,0 mm
13:04-0,5 °C71 %1.006,1 hPa0,1 km/h1,8 km/h112°0,0 mm
12:59-0,6 °C71 %1.006,1 hPa0,1 km/h1,8 km/h158°0,0 mm
12:54-0,7 °C71 %1.006,1 hPa0,7 km/h2,7 km/h140°0,0 mm
12:49-0,7 °C71 %1.006,1 hPa0,6 km/h3,5 km/h125°0,0 mm
12:44-0,7 °C71 %1.006,1 hPa0,8 km/h3,5 km/h126°0,0 mm
12:39-0,7 °C70 %1.006,1 hPa1,9 km/h6,4 km/h139°0,0 mm
12:34-0,7 °C70 %1.006,1 hPa1,2 km/h5,0 km/h156°0,0 mm
12:29-0,7 °C70 %1.006,8 hPa1,8 km/h3,5 km/h119°0,0 mm
12:24-0,7 °C70 %1.006,8 hPa1,6 km/h8,5 km/h140°0,0 mm
12:19-0,6 °C71 %1.006,8 hPa1,1 km/h3,5 km/h134°0,0 mm
12:14-0,6 °C71 %1.006,8 hPa1,3 km/h8,5 km/h113°0,0 mm
12:09-0,5 °C70 %1.006,8 hPa2,2 km/h5,6 km/h149°0,0 mm
12:04-0,5 °C70 %1.006,8 hPa2,2 km/h7,4 km/h145°0,0 mm
11:59-0,5 °C70 %1.006,8 hPa1,5 km/h5,0 km/h124°0,0 mm
11:54-0,4 °C70 %1.006,8 hPa1,7 km/h7,4 km/h152°0,0 mm
11:49-0,5 °C70 %1.006,8 hPa1,9 km/h7,9 km/h149°0,0 mm
11:44-0,5 °C71 %1.006,8 hPa1,3 km/h7,4 km/h153°0,0 mm
11:39-0,6 °C71 %1.006,8 hPa1,4 km/h3,5 km/h125°0,0 mm
11:34-0,6 °C71 %1.006,8 hPa1,4 km/h5,3 km/h143°0,0 mm
11:29-0,7 °C72 %1.006,8 hPa2,3 km/h7,9 km/h253°0,0 mm
11:24-0,7 °C73 %1.006,8 hPa1,3 km/h10,3 km/h135°0,0 mm
11:19-0,9 °C74 %1.006,8 hPa0,4 km/h2,1 km/h126°0,0 mm
11:14-1,0 °C74 %1.007,8 hPa0,9 km/h3,2 km/h136°0,0 mm
11:09-1,1 °C74 %1.007,8 hPa1,4 km/h8,5 km/h129°0,0 mm
11:04-1,2 °C74 %1.007,8 hPa1,8 km/h5,6 km/h132°0,0 mm
10:59-1,2 °C74 %1.007,8 hPa2,1 km/h5,0 km/h144°0,0 mm
10:54-1,3 °C74 %1.007,8 hPa1,9 km/h6,1 km/h129°0,0 mm
10:49-1,4 °C75 %1.007,8 hPa2,2 km/h9,3 km/h142°0,0 mm
10:44-1,5 °C74 %1.007,8 hPa2,4 km/h10,3 km/h177°0,0 mm
10:39-1,6 °C76 %1.007,8 hPa1,3 km/h6,8 km/h130°0,0 mm
10:34-1,6 °C75 %1.007,8 hPa2,7 km/h10,3 km/h149°0,0 mm
10:29-1,7 °C75 %1.007,8 hPa1,8 km/h6,1 km/h161°0,0 mm
10:24-1,7 °C76 %1.007,8 hPa2,3 km/h6,8 km/h160°0,0 mm
10:19-1,7 °C75 %1.007,8 hPa2,2 km/h5,6 km/h138°0,0 mm
10:14-1,8 °C76 %1.007,8 hPa1,7 km/h5,6 km/h121°0,0 mm
10:09-1,9 °C75 %1.007,8 hPa1,9 km/h9,7 km/h134°0,0 mm
10:04-2,0 °C76 %1.007,8 hPa1,0 km/h3,2 km/h114°0,0 mm
09:59-2,0 °C77 %1.007,8 hPa1,2 km/h5,6 km/h182°0,0 mm
09:54-2,1 °C76 %1.007,8 hPa0,9 km/h5,3 km/h143°0,0 mm
09:49-2,1 °C76 %1.007,8 hPa1,9 km/h5,6 km/h146°0,0 mm
09:44-2,1 °C76 %1.007,8 hPa1,8 km/h5,6 km/h130°0,0 mm
09:39-2,2 °C76 %1.007,8 hPa1,4 km/h3,9 km/h129°0,0 mm
09:34-2,3 °C76 %1.007,8 hPa2,8 km/h9,7 km/h147°0,0 mm
09:29-2,4 °C76 %1.007,8 hPa3,4 km/h8,5 km/h165°0,0 mm
09:24-2,4 °C76 %1.007,8 hPa2,6 km/h11,4 km/h161°0,0 mm
09:19-2,5 °C76 %1.007,8 hPa3,2 km/h10,3 km/h146°0,0 mm
09:14-2,5 °C76 %1.007,8 hPa2,0 km/h6,8 km/h144°0,0 mm
09:09-2,5 °C77 %1.007,8 hPa3,5 km/h6,8 km/h153°0,0 mm
09:04-2,5 °C77 %1.007,8 hPa2,1 km/h8,2 km/h128°0,0 mm
08:59-2,5 °C77 %1.008,8 hPa2,8 km/h9,3 km/h147°0,0 mm
08:54-2,6 °C78 %1.008,8 hPa1,8 km/h12,2 km/h146°0,0 mm
08:49-2,6 °C79 %1.008,8 hPa1,9 km/h6,4 km/h126°0,0 mm
08:44-2,6 °C79 %1.007,8 hPa1,9 km/h6,1 km/h148°0,0 mm
08:39-2,7 °C80 %1.007,8 hPa1,3 km/h3,2 km/h193°0,0 mm
08:34-2,7 °C80 %1.007,8 hPa1,6 km/h5,6 km/h129°0,0 mm
08:29-2,8 °C80 %1.007,8 hPa1,4 km/h6,4 km/h175°0,0 mm
08:24-2,9 °C81 %1.007,8 hPa0,7 km/h2,7 km/h109°0,0 mm
08:19-3,1 °C82 %1.007,8 hPa0,4 km/h3,5 km/h112°0,0 mm
08:14-3,2 °C82 %1.008,8 hPa0,1 km/h1,8 km/h112°0,0 mm
08:09-3,3 °C83 %1.008,8 hPa0,4 km/h3,2 km/h169°0,0 mm
08:04-3,4 °C83 %1.008,8 hPa0,1 km/h1,8 km/h68°0,0 mm
07:59-3,5 °C83 %1.008,8 hPa0,2 km/h2,7 km/h76°0,0 mm
07:54-3,5 °C84 %1.008,8 hPa0,2 km/h2,1 km/h90°0,0 mm
07:49-3,6 °C84 %1.008,8 hPa0,0 km/h0,0 km/h90°0,0 mm
07:44-3,6 °C84 %1.008,8 hPa0,3 km/h2,4 km/h96°0,0 mm
07:39-3,7 °C84 %1.008,8 hPa0,2 km/h2,1 km/h112°0,0 mm
07:34-3,7 °C84 %1.008,8 hPa0,1 km/h2,1 km/h112°0,0 mm
07:29-3,7 °C84 %1.008,8 hPa0,2 km/h1,8 km/h90°0,0 mm
07:24-3,7 °C84 %1.008,8 hPa0,2 km/h2,4 km/h90°0,0 mm
07:19-3,8 °C85 %1.008,8 hPa0,4 km/h2,7 km/h80°0,0 mm
07:14-3,8 °C85 %1.008,8 hPa0,2 km/h1,8 km/h112°0,0 mm
07:09-3,7 °C85 %1.008,8 hPa0,5 km/h2,7 km/h106°0,0 mm
07:04-3,8 °C85 %1.008,8 hPa0,6 km/h3,2 km/h90°0,0 mm
06:59-3,8 °C85 %1.008,8 hPa0,3 km/h2,4 km/h96°0,0 mm
06:54-3,8 °C85 %1.008,8 hPa0,6 km/h3,2 km/h112°0,0 mm
06:49-3,9 °C85 %1.008,8 hPa0,2 km/h2,4 km/h112°0,0 mm
06:44-3,9 °C86 %1.008,8 hPa0,4 km/h2,1 km/h112°0,0 mm
06:39-3,9 °C86 %1.008,8 hPa0,6 km/h5,6 km/h123°0,0 mm
06:34-3,8 °C85 %1.008,8 hPa0,3 km/h2,4 km/h166°0,0 mm
06:29-3,8 °C86 %1.009,8 hPa0,4 km/h2,4 km/h166°0,0 mm
06:24-3,7 °C85 %1.009,8 hPa0,2 km/h2,4 km/h202°0,0 mm
06:19-3,7 °C85 %1.009,8 hPa0,7 km/h6,8 km/h188°0,0 mm
06:14-3,7 °C85 %1.009,8 hPa0,1 km/h1,8 km/h158°0,0 mm
06:09-3,6 °C85 %1.009,8 hPa0,1 km/h1,8 km/h158°0,0 mm
06:04-3,7 °C85 %1.009,8 hPa0,2 km/h1,8 km/h158°0,0 mm
05:59-3,9 °C84 %1.009,8 hPa2,2 km/h8,5 km/h176°0,0 mm
05:54-4,1 °C85 %1.009,8 hPa2,7 km/h6,4 km/h176°0,0 mm
05:49-4,3 °C85 %1.009,8 hPa3,2 km/h7,9 km/h186°0,0 mm
05:44-4,5 °C85 %1.009,8 hPa3,5 km/h9,7 km/h194°0,0 mm
05:39-4,7 °C85 %1.009,8 hPa2,1 km/h5,3 km/h168°0,0 mm
05:34-4,8 °C85 %1.009,8 hPa2,6 km/h6,4 km/h197°0,0 mm
05:29-4,8 °C86 %1.009,8 hPa1,6 km/h5,3 km/h188°0,0 mm
05:24-4,8 °C86 %1.009,8 hPa1,2 km/h5,3 km/h178°0,0 mm
05:19-4,8 °C85 %1.009,8 hPa1,7 km/h5,6 km/h194°0,0 mm
05:14-4,7 °C86 %1.009,8 hPa0,9 km/h3,9 km/h170°0,0 mm
05:09-4,6 °C85 %1.009,8 hPa1,1 km/h3,9 km/h180°0,0 mm
05:04-4,5 °C85 %1.009,8 hPa2,7 km/h7,9 km/h196°0,0 mm
04:59-4,5 °C85 %1.009,8 hPa2,1 km/h6,4 km/h178°0,0 mm
04:54-4,6 °C85 %1.009,8 hPa3,3 km/h8,5 km/h173°0,0 mm
04:49-4,7 °C85 %1.009,8 hPa2,9 km/h7,4 km/h152°0,0 mm
04:44-4,7 °C85 %1.009,8 hPa3,3 km/h11,1 km/h173°0,0 mm
04:39-4,8 °C85 %1.009,8 hPa1,8 km/h4,7 km/h151°0,0 mm
04:34-4,9 °C85 %1.009,8 hPa3,4 km/h8,5 km/h183°0,0 mm
04:29-5,0 °C86 %1.009,8 hPa4,0 km/h8,9 km/h195°0,0 mm
04:24-5,2 °C86 %1.009,8 hPa1,6 km/h8,5 km/h166°0,0 mm
04:19-5,2 °C86 %1.009,8 hPa2,2 km/h5,3 km/h187°0,0 mm
04:14-5,3 °C86 %1.010,8 hPa0,8 km/h4,2 km/h168°0,0 mm
04:09-5,3 °C86 %1.010,8 hPa1,3 km/h6,4 km/h171°0,0 mm
04:04-5,4 °C86 %1.010,8 hPa1,1 km/h3,5 km/h128°0,0 mm
03:59-5,4 °C86 %1.010,8 hPa1,3 km/h2,7 km/h167°0,0 mm
03:54-5,5 °C87 %1.010,8 hPa2,7 km/h6,8 km/h183°0,0 mm
03:49-5,5 °C87 %1.010,8 hPa1,2 km/h5,6 km/h159°0,0 mm
03:44-5,6 °C87 %1.010,8 hPa0,7 km/h4,7 km/h171°0,0 mm
03:39-5,6 °C87 %1.010,8 hPa1,5 km/h3,9 km/h191°0,0 mm
03:34-5,7 °C88 %1.010,8 hPa1,3 km/h4,7 km/h182°0,0 mm
03:29-5,8 °C88 %1.010,8 hPa2,0 km/h6,4 km/h191°0,0 mm
03:24-5,8 °C88 %1.010,8 hPa2,2 km/h5,6 km/h181°0,0 mm
03:19-5,8 °C88 %1.010,8 hPa1,5 km/h7,4 km/h200°0,0 mm
03:14-5,9 °C88 %1.010,8 hPa1,5 km/h3,9 km/h156°0,0 mm
03:09-5,9 °C88 %1.010,8 hPa1,8 km/h3,9 km/h178°0,0 mm
03:04-6,0 °C89 %1.010,8 hPa2,5 km/h6,4 km/h156°0,0 mm
02:59-5,9 °C89 %1.011,9 hPa1,3 km/h3,9 km/h162°0,0 mm
02:54-5,9 °C89 %1.011,9 hPa0,6 km/h2,7 km/h149°0,0 mm
02:49-6,0 °C89 %1.011,9 hPa0,1 km/h1,8 km/h180°0,0 mm
02:44-6,1 °C89 %1.011,9 hPa1,3 km/h3,9 km/h160°0,0 mm
02:39-6,0 °C89 %1.011,9 hPa0,3 km/h3,9 km/h157°0,0 mm
02:34-5,5 °C89 %1.011,9 hPa0,1 km/h1,8 km/h158°0,0 mm
02:29-5,3 °C88 %1.011,9 hPa0,1 km/h1,8 km/h158°0,0 mm
02:24-5,4 °C88 %1.011,9 hPa0,4 km/h3,2 km/h158°0,0 mm
02:19-5,6 °C89 %1.011,9 hPa0,6 km/h2,7 km/h158°0,0 mm
02:14-5,8 °C89 %1.011,9 hPa0,6 km/h2,4 km/h175°0,0 mm
02:09-5,9 °C89 %1.011,9 hPa0,8 km/h2,7 km/h159°0,0 mm
02:04-6,0 °C89 %1.011,9 hPa0,5 km/h3,5 km/h158°0,0 mm
01:59-6,1 °C89 %1.011,9 hPa0,7 km/h3,5 km/h162°0,0 mm
01:54-6,2 °C89 %1.011,9 hPa2,3 km/h5,6 km/h176°0,0 mm
01:49-6,2 °C89 %1.011,9 hPa1,8 km/h6,8 km/h173°0,0 mm
01:44-6,2 °C89 %1.011,9 hPa1,9 km/h8,2 km/h191°0,0 mm
01:39-6,2 °C90 %1.011,9 hPa1,2 km/h5,3 km/h146°0,0 mm
01:34-6,3 °C90 %1.011,9 hPa1,0 km/h3,5 km/h149°0,0 mm
01:29-6,3 °C90 %1.011,9 hPa1,9 km/h7,4 km/h192°0,0 mm
01:24-6,3 °C90 %1.011,9 hPa0,8 km/h3,5 km/h194°0,0 mm
01:19-6,3 °C90 %1.011,9 hPa0,7 km/h5,0 km/h197°0,0 mm
01:14-6,2 °C91 %1.011,9 hPa0,2 km/h2,1 km/h202°0,0 mm
01:09-6,1 °C91 %1.011,9 hPa0,0 km/h0,0 km/h202°0,0 mm
01:04-6,1 °C91 %1.011,9 hPa1,0 km/h3,9 km/h184°0,0 mm
00:59-6,0 °C91 %1.011,9 hPa1,0 km/h2,7 km/h181°0,0 mm
00:54-6,0 °C91 %1.011,9 hPa0,3 km/h3,5 km/h202°0,0 mm
00:49-6,0 °C91 %1.011,9 hPa0,8 km/h3,5 km/h165°0,0 mm
00:44-6,0 °C92 %1.011,9 hPa0,2 km/h2,1 km/h158°0,0 mm
00:39-5,8 °C91 %1.011,9 hPa0,1 km/h2,1 km/h158°0,0 mm
00:34-5,5 °C90 %1.011,9 hPa0,0 km/h0,0 km/h158°0,0 mm
00:29-5,2 °C91 %1.011,9 hPa0,0 km/h0,0 km/h158°0,0 mm
00:24-5,0 °C90 %1.011,9 hPa0,0 km/h0,0 km/h158°0,0 mm
00:19-4,9 °C90 %1.011,9 hPa0,0 km/h0,0 km/h158°0,0 mm
00:14-4,8 °C90 %1.012,9 hPa0,4 km/h2,1 km/h158°0,0 mm
00:09-4,8 °C90 %1.012,9 hPa0,5 km/h2,7 km/h190°0,0 mm
00:04-4,7 °C90 %1.012,9 hPa0,4 km/h2,7 km/h168°0,0 mm